User: anonymous   Login
Location: Paddlesworth
(51.1000°N, 1.1333°E)
Time: 22:21:35
(UTC+00:00)
Language:

SPOT 1/Viking Rocket - Orbit

View from above orbital plane
View from above orbital plane
View from above satellite
View from above satellite

Ground track
Ground track

The orbit data is extracted from the following two-line orbital elements,

1 16615U 86019C   21203.96482787  .00000041  00000-0  31244-4 0  9995
2 16615  98.4272 264.9101 0010716 309.7641 223.1741 14.31852330853591
Epoch (UTC): 22 July 2021 23:09:21
Eccentricity: 0.0010716
inclination: 98.4272°
perigee height: 778 km
apogee height: 793 km
right ascension of ascending node: 264.9101°
argument of perigee: 309.7641°
revolutions per day: 14.31852330
mean anomaly at epoch: 223.1741°
orbit number at epoch: 85359

The dashed part of the orbit path shows where the satellite is in the earth's shadow,  

DLR